Weather History for Missoula, MT

Change the Weather History Date:

Saturday, May 10, 2014

  Actual Average Record
Temperature  
Mean Temperature 48 °F 52 °F  
Max Temperature 56 °F 66 °F 90 °F (1940)
Min Temperature 40 °F 38 °F 24 °F (1894)
Degree Days  
Heating Degree Days 17 13  
Month to date heating degree days 135 144  
Since 1 July heating degree days 7127 6907  
Cooling Degree Days 0 0  
Month to date cooling degree days 0 0  
Year to date cooling degree days 0 0  
Moisture  
Dew Point 35 °F    
Average Humidity 67    
Maximum Humidity 92    
Minimum Humidity 41    
Precipitation  
Precipitation T in 0.06 in 0.78 in (1896)
Month to date precipitation 0.45 0.48  
Year to date precipitation 6.29 4.25  
Snow  
Snow 0.00 in - - ()
Month to date snowfall 0.0  
Year to date snowfall 51.8  
Since 1 July snowfall 65.7  
Snow Depth 0.00 in    
Sea Level Pressure  
Sea Level Pressure 29.97 in    
Wind  
Wind Speed 10 mph (NW)    
Max Wind Speed 21 mph    
Max Gust Speed 27 mph    
Visibility 10 miles    
Events      
T = Trace of Precipitation, MM = Missing Value Source: NWS Daily Summary

Daily Weather History Graph

Daily Weather History Graph

Search for Another Location

Airport:

Trip Planner

Search our weather history database for the weather conditions in past years. The results will help you decide how hot, cold, wet, or windy it might be!

Date:

Astronomy

May. 10, 2014 Rise Set
Actual Time 6:07 AM MDT 8:58 PM MDT
Civil Twilight 5:32 AM MDT 9:34 PM MDT
Nautical Twilight 4:47 AM MDT 10:19 PM MDT
Astronomical Twilight 3:54 AM MDT 11:13 PM MDT
Moon 4:43 PM MDT (5/10) 4:00 AM MDT (5/10)
Length of Visible Light 16h 01m
Length of Day
14h 51m
Waxing Gibbous, 82% of the Moon is Illuminated
May 10
Waxing Gibbous
May 14
Full
May 21
Last Quarter
May 28
New
Jun 5
First Quarter

Hourly Weather History & Observations

Time (MDT) Temp. Windchill Dew Point Humidity Pressure Visibility Wind Dir Wind Speed Gust Speed Precip Events Conditions
12:53 AM 43.0 °F 40.3 °F 36.0 °F 76% 29.92 in 10.0 mi NNW 4.6 mph - 0.00 in   Scattered Clouds
1:53 AM 41.0 °F 38.0 °F 36.0 °F 82% 29.91 in 10.0 mi West 4.6 mph - N/A   Mostly Cloudy
2:53 AM 42.1 °F 35.2 °F 36.0 °F 79% 29.91 in 10.0 mi NNW 12.7 mph - N/A   Overcast
3:53 AM 42.1 °F 36.6 °F 36.0 °F 79% 29.91 in 10.0 mi North 9.2 mph - 0.00 in   Overcast
4:53 AM 39.2 °F 35.9 °F 37.4 °F 93% 29.90 in 10.0 mi West 4.6 mph - N/A   Overcast
5:53 AM 39.9 °F 37.8 °F 37.0 °F 89% 29.93 in 10.0 mi WNW 3.5 mph - N/A   Overcast
6:53 AM 39.9 °F 36.7 °F 37.0 °F 89% 29.94 in 10.0 mi WNW 4.6 mph - N/A   Overcast
7:53 AM 42.1 °F 37.7 °F 37.9 °F 85% 29.95 in 10.0 mi NW 6.9 mph - N/A   Overcast
8:53 AM 45.0 °F 39.3 °F 37.9 °F 76% 29.96 in 10.0 mi WNW 11.5 mph - N/A   Overcast
9:06 AM 45.0 °F 39.7 °F 37.9 °F 76% 29.94 in 10.0 mi WNW 10.4 mph - N/A   Mostly Cloudy
9:53 AM 46.0 °F 41.0 °F 35.1 °F 66% 29.96 in 10.0 mi WNW 10.4 mph - N/A   Mostly Cloudy
10:53 AM 46.0 °F 42.5 °F 34.0 °F 63% 29.96 in 10.0 mi NW 6.9 mph - N/A   Overcast
11:53 AM 48.9 °F - 33.1 °F 54% 29.96 in 10.0 mi NW 10.4 mph - N/A   Mostly Cloudy
12:53 PM 48.9 °F - 33.1 °F 54% 29.96 in 10.0 mi West 12.7 mph - 0.00 in   Mostly Cloudy
1:53 PM 51.1 °F - 34.0 °F 52% 29.95 in 10.0 mi NW 15.0 mph - N/A   Scattered Clouds
2:53 PM 54.0 °F - 33.1 °F 45% 29.94 in 10.0 mi NNW 10.4 mph - N/A   Mostly Cloudy
3:38 PM 55.0 °F - 34.0 °F 45% 29.93 in 10.0 mi West 18.4 mph 23.0 mph N/A   Scattered Clouds
3:53 PM 54.0 °F - 33.1 °F 45% 29.95 in 10.0 mi WNW 13.8 mph - N/A   Scattered Clouds
4:53 PM 55.9 °F - 32.0 °F 40% 29.95 in 10.0 mi NW 12.7 mph - N/A   Scattered Clouds
5:53 PM 55.0 °F - 34.0 °F 45% 29.97 in 10.0 mi NW 13.8 mph - 0.00 in   Scattered Clouds
6:53 PM 54.0 °F - 30.9 °F 41% 29.99 in 10.0 mi NNW 18.4 mph 24.2 mph N/A   Mostly Cloudy
7:53 PM 52.0 °F - 35.1 °F 53% 30.02 in 10.0 mi WNW 13.8 mph - N/A   Overcast
8:53 PM 50.0 °F - 34.0 °F 54% 30.04 in 10.0 mi NW 12.7 mph - N/A   Overcast
9:53 PM 48.0 °F - 35.1 °F 61% 30.09 in 10.0 mi NW 9.2 mph - N/A   Overcast
10:53 PM 46.9 °F - 36.0 °F 66% 30.11 in 10.0 mi WNW 8.1 mph - N/A   Overcast
11:53 PM 46.9 °F - 35.1 °F 63% 30.12 in 10.0 mi NNE 3.5 mph - N/A   Overcast